Regional Weather Roundup
Issued by NWS Mobile, AL

Home | Current Version | Previous Version | Text Only | Print | Product List | Glossary On
Versions: 1 2 3 4 5 6 7 8 9 10 11 12 13 14 15 16 17 18 19 20 21 22 23 24 25 26 27 28 29 30 31 32 33 34 35 36 37 38 39 40 41 42 43 44 45 46 47 48 49 50
341
ASUS44 KMOB 280812
RWRMOB
REGIONAL WEATHER ROUNDUP
NATIONAL WEATHER SERVICE MOBILE AL
300 AM CDT SUN MAY 28 2017

NOTE: "FAIR" INDICATES FEW OR NO CLOUDS BELOW 12,000 FEET WITH NO
      SIGNIFICANT WEATHER AND/OR OBSTRUCTIONS TO VISIBILITY.

  * THESE STATIONS ARE PART OF THE UNIVERSITY OF SOUTH ALABAMA
    MESONET AND ARE NOT UNDER NWS OR FAA QUALITY CONTROL.

ALZ061>064-280900-
COASTAL ALABAMA

CITY           SKY/WX    TMP DP  RH WIND       PRES   REMARKS
MOBILE REG APT MOCLDY    77  74  90 S8        29.94F
BROOKLEY FIELD CLOUDY    79  76  90 SW3       29.96S
USA CAMPUS*      N/A     75  73  94 CALM      29.94F
DOG RIVER*       N/A     77  75  94 S9        30.68S


CITY           SKY/WX    TMP DP  RH WIND       PRES   REMARKS
GULF SHORES    CLOUDY    78  78 100 SW9G17    29.95R

$$

ALZ051>060-280900-
INTERIOR SOUTHWEST AND SOUTH CENTRAL ALABAMA

CITY           SKY/WX    TMP DP  RH WIND       PRES   REMARKS
GREENVILLE     CLOUDY    75  70  84 SW7       29.95S
EVERGREEN      CLOUDY    75  72  90 S3        29.95S
ATMORE*          N/A     75  73  94 SW7       29.96S
ANDALUSIA/OPP  MOCLDY    76  72  87 CALM      29.95R
ANDALUSIA*       N/A     73  72  94 W6        29.96R
FLORALA APT    CLOUDY    75  72  90 SW6       29.97S
FLORALA*         N/A     75  73  94 CALM      30.65R

$$

FLZ001>006-280900-
WESTERN FLORIDA PANHANDLE

CITY           SKY/WX    TMP DP  RH WIND       PRES   REMARKS
PENSACOLA      CLOUDY    80  74  81 SW9       29.95S
NAS PENSACOLA  CLOUDY    78  75  90 SW8       29.95S
MILTON         MOCLDY    75  73  93 S5        29.95S
WHTNG S FIELD    N/A    N/A N/A N/A MISG      29.96R


CITY           SKY/WX    TMP DP  RH WIND       PRES   REMARKS
JAY*             N/A     75  73  94 S7        29.95F
DUKE FIELD     MOCLDY    76  74  91 SW6       29.95S
CRESTVIEW      MOCLDY    74  73  97 SW5       29.97S
VALPARAISO     MOCLDY    78  75  90 SW9       29.95S
DESTIN         CLOUDY    80  80 100 VRB5      29.95S

$$

MSZ076-079-280900-
INTERIOR SOUTHEAST MISSISSIPPI

CITY           SKY/WX    TMP DP  RH WIND       PRES   REMARKS
LEAKESVILLE*   NOT AVBL
AGRICOLA*        N/A     75  75 100 CALM      29.93S

$$

MARINE OBSERVATIONS

STATION/POSITION TIME  TEMP    WIND        PRES    WAVE
                       AIR SEA DIR/SP/G            HT/PER
                 (UTC) (F)     (DEG/KT/KT) (MB)    (FT/S)
PASCAGOULA       0748   79     210/  8/ 12 1013.9S
PETIT BOIS ISLND 0748   78     210/ 15/ 17 1014.5S
GRAND BAY        0645   79     210/ 12     1015.0S
KATRINA CUT      0730   79     220/ 16     1013.9R
CEDAR POINT      0730   79     210/ 15     1013.9S
E DAUPHIN ISLAND 0700   78     200/  9/ 13 1013.9R
MIDDLE BAY LIGHT 0730   79     210/ 16     1014.2R
USCG MOBILE BAY  0748   78 79  210/  4/  6 1014.6R
STATE DOCKS      0748   78 78              1013.9R
MEAHER PARK      0730   79     200/ 10     1013.5F
FORT MORGAN      0748   78     210/ 17/ 19   N/A
12 S ORANGE BCH  0750   78 78  210/ 14/ 16 1013.6S   3/ 4
PENSACOLA BAY    0748   79 80              1014.5R
64 S DAUPHIN ISL 0750   79 80  180/ 14/ 16 1014.0F   3/ 4
67 S FORT MORGAN 0730   77     200/ 16     1014.2F

$$

SELECTED LOCATIONS ACROSS THE REGION

CITY           SKY/WX    TMP DP  RH WIND       PRES   REMARKS
NEW ORLEANS    MOCLDY    77  75  93 S6        29.92F
GULFPORT       CLOUDY    79  75  87 S5        29.93S
PASCAGOULA AP  CLOUDY    79  74  84 SW7       29.94S
PASCAGOULA*    NOT AVBL
HATTIESBURG    PTCLDY    77  74  90 S8        29.93R
LAUREL         CLOUDY    77  72  83 SW5       29.95R
MERIDIAN       CLOUDY    78  74  87 CALM      29.95R
JACKSON        CLOUDY    73  71  93 S8        29.90F
MONTGOMERY     CLOUDY    76  69  79 SW7       29.94F
TROY           CLOUDY    72  72 100 S3        29.97S
ASHFORD*         N/A     73  72  94 W6        29.96R
DOTHAN         CLOUDY    74  73  97 W8        30.00R
PANAMA CITY    MOCLDY    77  74  90 S9        29.95S

$$





USA.gov is the U.S. government's official web portal to all federal, state and local government web resources and services.